Time,TemperatureF,DewpointF,PressureIn,WindDirection,WindDirectionDegrees,WindSpeedMPH,WindSpeedGustMPH,Humidity,HourlyPrecipIn,Conditions,Clouds,dailyrainin,SoftwareType,DateUTC
2013-01-07 00:02:00,32.0,29.0,29.55,NNE,24,0.0,2.0,89,0.00,,,0.01,,2013-01-07 06:02:00,
2013-01-07 00:12:00,32.0,29.0,29.55,NNE,24,0.0,2.0,89,0.00,,,0.01,,2013-01-07 06:12:00,
2013-01-07 00:22:00,31.0,28.0,-100.00,NE,53,0.0,4.0,90,0.00,,,0.01,,2013-01-07 06:22:00,
2013-01-07 00:32:00,31.0,28.0,5.18,North,5,0.0,4.0,90,0.00,,,0.01,,2013-01-07 06:32:00,
2013-01-07 00:42:00,31.0,28.0,5.18,North,5,0.0,4.0,90,0.00,,,0.01,,2013-01-07 06:42:00,
2013-01-07 00:52:00,30.0,27.0,26.72,SSW,198,0.0,4.0,90,0.00,,,0.01,,2013-01-07 06:52:00,
2013-01-07 01:02:00,30.0,27.0,-100.00,NNW,344,0.0,3.0,90,0.00,,,0.01,,2013-01-07 07:02:00,
2013-01-07 01:12:00,30.0,27.0,-100.00,NNW,344,0.0,3.0,90,0.00,,,0.01,,2013-01-07 07:12:00,
2013-01-07 01:22:00,30.0,27.0,3.40,ESE,111,0.0,8.0,90,0.00,,,0.01,,2013-01-07 07:22:00,
2013-01-07 01:33:00,29.0,26.0,1.82,NNW,338,0.0,5.0,89,0.00,,,0.01,,2013-01-07 07:33:00,
2013-01-07 01:42:00,29.0,26.0,1.82,NNW,338,0.0,5.0,89,0.00,,,0.01,,2013-01-07 07:42:00,
2013-01-07 01:53:00,29.0,26.0,3.30,NW,315,0.0,1.0,89,0.00,,,0.01,,2013-01-07 07:53:00,
2013-01-07 02:03:00,29.0,26.0,-100.00,ENE,67,0.0,3.0,89,0.00,,,0.01,,2013-01-07 08:03:00,
2013-01-07 02:12:00,29.0,26.0,-100.00,ENE,67,0.0,3.0,89,0.00,,,0.01,,2013-01-07 08:12:00,
2013-01-07 02:22:00,28.0,25.0,20.72,ENE,68,0.0,3.0,90,0.00,,,0.01,,2013-01-07 08:22:00,
2013-01-07 02:32:00,28.0,25.0,-100.00,NE,45,0.0,5.0,90,0.00,,,0.01,,2013-01-07 08:32:00,
2013-01-07 02:42:00,28.0,25.0,-100.00,NE,45,0.0,5.0,90,0.00,,,0.01,,2013-01-07 08:42:00,
2013-01-07 02:53:00,28.0,25.0,3.30,East,86,0.0,2.0,90,0.00,,,0.01,,2013-01-07 08:53:00,
2013-01-07 03:02:00,28.0,25.0,32.58,NE,46,0.0,2.0,90,0.00,,,0.01,,2013-01-07 09:02:00,
2013-01-07 03:12:00,28.0,25.0,32.58,NE,46,0.0,2.0,90,0.00,,,0.01,,2013-01-07 09:12:00,
2013-01-07 03:22:00,28.0,25.0,3.31,NE,52,0.0,4.0,90,0.00,,,0.01,,2013-01-07 09:22:00,
2013-01-07 03:32:00,27.0,24.0,3.30,NE,52,0.0,4.0,89,0.00,,,0.01,,2013-01-07 09:32:00,
2013-01-07 03:42:00,27.0,24.0,3.30,NE,52,0.0,4.0,89,0.00,,,0.01,,2013-01-07 09:42:00,
2013-01-07 03:52:00,27.0,24.0,3.30,NNE,28,0.0,5.0,89,0.00,,,0.01,,2013-01-07 09:52:00,
2013-01-07 04:02:00,27.0,24.0,-100.00,East,94,0.0,3.0,90,0.00,,,0.01,,2013-01-07 10:02:00,
2013-01-07 04:12:00,27.0,24.0,31.66,East,94,0.0,2.0,89,0.00,,,0.01,,2013-01-07 10:12:00,
2013-01-07 04:22:00,27.0,24.0,31.66,East,94,0.0,2.0,89,0.00,,,0.01,,2013-01-07 10:22:00,
2013-01-07 04:32:00,27.0,24.0,-100.00,NE,51,0.0,3.0,89,0.00,,,0.01,,2013-01-07 10:32:00,
2013-01-07 04:42:00,27.0,24.0,-100.00,NE,51,0.0,3.0,89,0.00,,,0.01,,2013-01-07 10:42:00,
2013-01-07 04:52:00,27.0,24.0,3.30,ENE,75,0.0,2.0,90,0.00,,,0.01,,2013-01-07 10:52:00,
2013-01-07 05:02:00,27.0,24.0,3.30,ENE,71,0.0,2.0,90,0.00,,,0.01,,2013-01-07 11:02:00,
2013-01-07 05:12:00,27.0,24.0,3.30,ENE,71,0.0,2.0,90,0.00,,,0.01,,2013-01-07 11:12:00,
2013-01-07 05:22:00,27.0,24.0,-100.00,NE,44,0.0,3.0,90,0.00,,,0.01,,2013-01-07 11:22:00,
2013-01-07 05:32:00,26.0,23.0,18.96,ENE,74,1.0,2.0,90,0.00,,,0.01,,2013-01-07 11:32:00,
2013-01-07 05:43:00,26.0,23.0,18.96,ENE,74,1.0,2.0,90,0.00,,,0.01,,2013-01-07 11:43:00,
2013-01-07 05:53:00,26.0,23.0,4.67,ENE,59,0.0,2.0,90,0.00,,,0.01,,2013-01-07 11:53:00,
2013-01-07 06:02:00,26.0,23.0,26.88,North,9,0.0,3.0,90,0.00,,,0.01,,2013-01-07 12:02:00,
2013-01-07 06:12:00,26.0,23.0,3.30,ENE,74,0.0,1.0,90,0.00,,,0.00,,2013-01-07 12:12:00,
2013-01-07 06:22:00,26.0,23.0,3.30,ENE,74,0.0,1.0,90,0.00,,,0.00,,2013-01-07 12:22:00,
2013-01-07 06:32:00,26.0,24.0,-100.00,NNE,24,0.0,2.0,91,0.00,,,0.00,,2013-01-07 12:32:00,
2013-01-07 06:43:00,26.0,24.0,-100.00,NNE,24,0.0,2.0,91,0.00,,,0.00,,2013-01-07 12:43:00,
2013-01-07 06:53:00,26.0,24.0,-100.00,ENE,74,0.0,3.0,91,0.00,,,0.00,,2013-01-07 12:53:00,
2013-01-07 07:02:00,26.0,24.0,27.85,East,81,0.0,7.0,91,0.00,,,0.00,,2013-01-07 13:02:00,
2013-01-07 07:12:00,26.0,24.0,27.85,East,81,0.0,7.0,91,0.00,,,0.00,,2013-01-07 13:12:00,
2013-01-07 07:23:00,26.0,24.0,3.30,ENE,59,0.0,7.0,91,0.00,,,0.00,,2013-01-07 13:23:00,
2013-01-07 07:33:00,26.0,24.0,-100.00,NE,39,0.0,4.0,91,0.00,,,0.00,,2013-01-07 13:33:00,
2013-01-07 07:42:00,26.0,24.0,-100.00,NE,39,0.0,4.0,91,0.00,,,0.00,,2013-01-07 13:42:00,
2013-01-07 07:53:00,26.0,24.0,3.30,East,80,0.0,5.0,91,0.00,,,0.00,,2013-01-07 13:53:00,
2013-01-07 08:03:00,27.0,25.0,3.30,NE,50,0.0,4.0,91,0.00,,,0.00,,2013-01-07 14:03:00,
2013-01-07 08:12:00,27.0,25.0,3.30,NE,50,0.0,4.0,91,0.00,,,0.00,,2013-01-07 14:12:00,
2013-01-07 08:22:00,27.0,25.0,-100.00,East,91,0.0,5.0,91,0.00,,,0.00,,2013-01-07 14:22:00,
2013-01-07 08:33:00,28.0,26.0,-100.00,East,88,0.0,2.0,91,0.00,,,0.00,,2013-01-07 14:33:00,
2013-01-07 08:42:00,28.0,26.0,-100.00,East,88,0.0,2.0,91,0.00,,,0.00,,2013-01-07 14:42:00,
2013-01-07 08:53:00,30.0,28.0,-100.00,East,86,0.0,1.0,91,0.00,,,0.00,,2013-01-07 14:53:00,
2013-01-07 09:03:00,32.0,29.0,24.88,ENE,73,0.0,1.0,90,0.00,,,0.00,,2013-01-07 15:03:00,
2013-01-07 09:12:00,32.0,29.0,24.88,ENE,73,0.0,1.0,90,0.00,,,0.00,,2013-01-07 15:12:00,
2013-01-07 09:22:00,33.0,30.0,3.30,ENE,75,0.0,1.0,87,0.00,,,0.00,,2013-01-07 15:22:00,
2013-01-07 09:33:00,34.0,30.0,3.30,ENE,75,0.0,2.0,86,0.00,,,0.00,,2013-01-07 15:33:00,
2013-01-07 09:42:00,34.0,30.0,3.30,ENE,75,0.0,2.0,86,0.00,,,0.00,,2013-01-07 15:42:00,
2013-01-07 09:53:00,36.0,32.0,3.30,ENE,74,0.0,3.0,84,0.00,,,0.00,,2013-01-07 15:53:00,
2013-01-07 10:02:00,37.0,31.0,3.30,ENE,72,0.0,2.0,80,0.00,,,0.00,,2013-01-07 16:02:00,
2013-01-07 10:12:00,37.0,31.0,3.30,ENE,72,0.0,2.0,80,0.00,,,0.00,,2013-01-07 16:12:00,
2013-01-07 10:22:00,37.0,31.0,3.30,NW,323,1.0,2.0,79,0.00,,,0.00,,2013-01-07 16:22:00,
2013-01-07 10:33:00,38.0,31.0,3.30,WNW,287,0.0,3.0,76,0.00,,,0.00,,2013-01-07 16:33:00,
2013-01-07 10:43:00,38.0,31.0,3.30,WNW,287,0.0,3.0,76,0.00,,,0.00,,2013-01-07 16:43:00,
2013-01-07 10:53:00,40.0,33.0,3.30,NNE,25,0.0,3.0,77,0.00,,,0.00,,2013-01-07 16:53:00,
2013-01-07 11:02:00,41.0,33.0,3.30,NE,53,0.0,3.0,73,0.00,,,0.00,,2013-01-07 17:02:00,
2013-01-07 11:12:00,41.0,33.0,3.30,NE,53,0.0,3.0,73,0.00,,,0.00,,2013-01-07 17:12:00,
2013-01-07 11:23:00,41.0,32.0,3.30,South,178,0.0,2.0,71,0.00,,,0.00,,2013-01-07 17:23:00,
2013-01-07 11:33:00,44.0,34.0,3.30,North,10,1.0,3.0,68,0.00,,,0.00,,2013-01-07 17:33:00,
2013-01-07 11:42:00,44.0,34.0,3.30,North,10,1.0,3.0,68,0.00,,,0.00,,2013-01-07 17:42:00,
2013-01-07 11:53:00,44.0,33.0,3.30,NNE,22,0.0,4.0,66,0.00,,,0.00,,2013-01-07 17:53:00,
2013-01-07 12:03:00,46.0,35.0,3.30,NNE,32,1.0,3.0,64,0.00,,,0.00,,2013-01-07 18:03:00,
2013-01-07 12:12:00,46.0,35.0,3.30,NNE,32,1.0,3.0,64,0.00,,,0.00,,2013-01-07 18:12:00,
2013-01-07 12:23:00,46.0,34.0,3.30,South,184,0.0,4.0,63,0.00,,,0.00,,2013-01-07 18:23:00,
2013-01-07 12:32:00,47.0,35.0,3.30,SSW,211,1.0,3.0,62,0.00,,,0.00,,2013-01-07 18:32:00,
2013-01-07 12:42:00,47.0,35.0,3.30,SSW,211,1.0,3.0,62,0.00,,,0.00,,2013-01-07 18:42:00,
2013-01-07 12:53:00,48.0,36.0,3.30,ESE,103,0.0,3.0,62,0.00,,,0.00,,2013-01-07 18:53:00,
2013-01-07 13:03:00,50.0,37.0,3.30,East,82,0.0,2.0,60,0.00,,,0.00,,2013-01-07 19:03:00,
2013-01-07 13:12:00,50.0,37.0,3.30,East,82,0.0,2.0,60,0.00,,,0.00,,2013-01-07 19:12:00,
2013-01-07 13:22:00,50.0,35.0,3.30,South,173,0.0,4.0,57,0.00,,,0.00,,2013-01-07 19:22:00,
2013-01-07 13:33:00,49.0,34.0,3.30,ESE,122,0.0,5.0,56,0.00,,,0.00,,2013-01-07 19:33:00,
2013-01-07 13:42:00,49.0,34.0,3.30,ESE,122,0.0,5.0,56,0.00,,,0.00,,2013-01-07 19:42:00,
2013-01-07 13:53:00,49.0,34.0,3.30,East,90,0.0,3.0,57,0.00,,,0.00,,2013-01-07 19:53:00,
2013-01-07 14:03:00,52.0,36.0,3.30,East,98,0.0,4.0,55,0.00,,,0.00,,2013-01-07 20:03:00,
2013-01-07 14:12:00,52.0,36.0,3.30,East,98,0.0,4.0,55,0.00,,,0.00,,2013-01-07 20:12:00,
2013-01-07 14:23:00,51.0,34.0,3.30,East,93,0.0,4.0,53,0.00,,,0.00,,2013-01-07 20:23:00,
2013-01-07 14:33:00,52.0,34.0,3.30,SE,146,0.0,5.0,51,0.00,,,0.00,,2013-01-07 20:33:00,
2013-01-07 14:42:00,52.0,34.0,3.30,SE,146,0.0,5.0,51,0.00,,,0.00,,2013-01-07 20:42:00,
2013-01-07 14:53:00,51.0,35.0,3.30,East,93,0.0,5.0,54,0.00,,,0.00,,2013-01-07 20:53:00,
2013-01-07 15:03:00,52.0,35.0,3.30,SE,142,0.0,4.0,52,0.00,,,0.00,,2013-01-07 21:03:00,
2013-01-07 15:12:00,52.0,35.0,3.30,SE,142,0.0,4.0,52,0.00,,,0.00,,2013-01-07 21:12:00,
2013-01-07 15:22:00,52.0,35.0,3.30,East,92,0.0,5.0,52,0.00,,,0.00,,2013-01-07 21:22:00,
2013-01-07 15:33:00,52.0,35.0,3.30,East,98,0.0,5.0,53,0.00,,,0.00,,2013-01-07 21:33:00,
2013-01-07 15:42:00,52.0,35.0,3.30,East,98,0.0,5.0,53,0.00,,,0.00,,2013-01-07 21:42:00,
2013-01-07 15:53:00,52.0,34.0,3.30,East,98,0.0,6.0,51,0.00,,,0.00,,2013-01-07 21:53:00,
2013-01-07 16:02:00,51.0,35.0,3.30,NE,53,0.0,3.0,54,0.00,,,0.00,,2013-01-07 22:02:00,
2013-01-07 16:12:00,51.0,35.0,3.30,NE,53,0.0,3.0,54,0.00,,,0.00,,2013-01-07 22:12:00,
2013-01-07 16:22:00,50.0,35.0,3.30,East,96,2.0,5.0,56,0.00,,,0.00,,2013-01-07 22:22:00,
2013-01-07 16:33:00,49.0,34.0,3.30,East,82,0.0,4.0,57,0.00,,,0.00,,2013-01-07 22:33:00,
2013-01-07 16:42:00,49.0,34.0,3.30,East,82,0.0,4.0,57,0.00,,,0.00,,2013-01-07 22:42:00,
2013-01-07 16:53:00,49.0,35.0,3.30,East,90,0.0,3.0,58,0.00,,,0.00,,2013-01-07 22:53:00,
2013-01-07 17:02:00,47.0,34.0,3.30,East,90,0.0,0.0,61,0.00,,,0.00,,2013-01-07 23:02:00,
2013-01-07 17:12:00,47.0,34.0,3.30,East,90,0.0,0.0,61,0.00,,,0.00,,2013-01-07 23:12:00,
2013-01-07 17:22:00,45.0,34.0,3.30,East,90,0.0,0.0,65,0.00,,,0.00,,2013-01-07 23:22:00,
2013-01-07 17:32:00,44.0,33.0,3.30,East,90,0.0,0.0,66,0.00,,,0.00,,2013-01-07 23:32:00,
2013-01-07 17:42:00,44.0,33.0,3.30,East,90,0.0,0.0,66,0.00,,,0.00,,2013-01-07 23:42:00,
2013-01-07 17:53:00,43.0,34.0,3.30,East,90,0.0,0.0,69,0.00,,,0.00,,2013-01-07 23:53:00,
2013-01-07 18:02:00,41.0,32.0,3.30,East,90,0.0,0.0,71,0.00,,,0.00,,2013-01-08 00:02:00,
2013-01-07 18:12:00,41.0,32.0,3.30,East,90,0.0,0.0,71,0.00,,,0.00,,2013-01-08 00:12:00,
2013-01-07 18:22:00,40.0,32.0,3.30,East,90,0.0,0.0,74,0.00,,,0.00,,2013-01-08 00:22:00,
2013-01-07 18:33:00,39.0,32.0,3.30,East,90,0.0,0.0,76,0.00,,,0.00,,2013-01-08 00:33:00,
2013-01-07 18:42:00,39.0,32.0,3.30,East,90,0.0,0.0,76,0.00,,,0.00,,2013-01-08 00:42:00,
2013-01-07 18:53:00,38.0,31.0,3.30,East,90,0.0,0.0,77,0.00,,,0.00,,2013-01-08 00:53:00,
2013-01-07 19:02:00,37.0,31.0,3.30,East,90,0.0,0.0,79,0.00,,,0.00,,2013-01-08 01:02:00,
2013-01-07 19:12:00,37.0,31.0,3.30,East,90,0.0,0.0,79,0.00,,,0.00,,2013-01-08 01:12:00,
2013-01-07 19:22:00,36.0,30.0,3.30,East,90,0.0,0.0,80,0.00,,,0.00,,2013-01-08 01:22:00,
2013-01-07 19:32:00,36.0,31.0,3.30,East,90,0.0,0.0,81,0.00,,,0.00,,2013-01-08 01:32:00,
2013-01-07 19:42:00,36.0,31.0,3.30,East,90,0.0,0.0,81,0.00,,,0.00,,2013-01-08 01:42:00,
2013-01-07 19:52:00,35.0,30.0,1.75,East,90,0.0,0.0,82,0.00,,,0.00,,2013-01-08 01:52:00,
2013-01-07 20:02:00,35.0,30.0,3.30,East,90,0.0,0.0,82,0.00,,,0.00,,2013-01-08 02:02:00,
2013-01-07 20:12:00,35.0,30.0,3.30,East,90,0.0,0.0,82,0.00,,,0.00,,2013-01-08 02:12:00,
2013-01-07 20:22:00,35.0,30.0,3.30,East,90,0.0,0.0,83,0.00,,,0.00,,2013-01-08 02:22:00,
2013-01-07 20:32:00,35.0,30.0,1.76,East,90,1.0,2.0,83,0.00,,,0.00,,2013-01-08 02:32:00,
2013-01-07 20:42:00,35.0,30.0,1.76,East,90,1.0,2.0,83,0.00,,,0.00,,2013-01-08 02:42:00,
2013-01-07 20:53:00,36.0,31.0,3.30,East,90,0.0,2.0,81,0.00,,,0.00,,2013-01-08 02:53:00,
2013-01-07 21:03:00,36.0,30.0,3.30,East,90,0.0,0.0,79,0.00,,,0.00,,2013-01-08 03:03:00,
2013-01-07 21:12:00,36.0,30.0,3.30,East,90,0.0,0.0,79,0.00,,,0.00,,2013-01-08 03:12:00,
2013-01-07 21:22:00,36.0,30.0,3.29,East,90,0.0,1.0,79,0.00,,,0.00,,2013-01-08 03:22:00,
2013-01-07 21:32:00,36.0,30.0,3.30,East,90,0.0,0.0,79,0.00,,,0.00,,2013-01-08 03:32:00,
2013-01-07 21:42:00,36.0,30.0,3.30,East,90,0.0,0.0,79,0.00,,,0.00,,2013-01-08 03:42:00,
2013-01-07 21:53:00,36.0,30.0,3.40,East,90,0.0,0.0,79,0.00,,,0.00,,2013-01-08 03:53:00,
2013-01-07 22:02:00,36.0,30.0,3.21,East,90,0.0,1.0,79,0.00,,,0.00,,2013-01-08 04:02:00,
2013-01-07 22:12:00,36.0,30.0,3.21,East,90,0.0,1.0,79,0.00,,,0.00,,2013-01-08 04:12:00,
2013-01-07 22:22:00,37.0,31.0,24.25,East,91,1.0,2.0,78,0.00,,,0.00,,2013-01-08 04:22:00,
2013-01-07 22:32:00,37.0,30.0,-100.00,East,91,0.0,0.0,77,0.00,,,0.00,,2013-01-08 04:32:00,
2013-01-07 22:42:00,37.0,30.0,-100.00,East,91,0.0,0.0,77,0.00,,,0.00,,2013-01-08 04:42:00,
2013-01-07 22:52:00,37.0,30.0,9.17,East,91,0.0,0.0,77,0.00,,,0.00,,2013-01-08 04:52:00,
2013-01-07 23:03:00,37.0,31.0,3.30,East,91,1.0,2.0,78,0.00,,,0.00,,2013-01-08 05:03:00,
2013-01-07 23:12:00,37.0,31.0,3.30,East,91,1.0,2.0,78,0.00,,,0.00,,2013-01-08 05:12:00,
2013-01-07 23:22:00,37.0,30.0,1.69,East,91,0.0,0.0,77,0.00,,,0.00,,2013-01-08 05:22:00,
2013-01-07 23:33:00,36.0,30.0,26.80,East,91,0.0,0.0,78,0.00,,,0.00,,2013-01-08 05:33:00,
2013-01-07 23:42:00,36.0,30.0,26.80,East,91,0.0,0.0,78,0.00,,,0.00,,2013-01-08 05:42:00,
2013-01-07 23:53:00,36.0,30.0,1.69,East,91,0.0,0.0,78,0.00,,,0.00,,2013-01-08 05:53:00,